Date String (YYYY-MM-DD hh:mm:ss) UTC,Instrument flags,Ambient pressure (hPa),Sample flow (lpm),Bypass flow (lpm),Sample temperature (°C),Ambient temperature (°C),ASC tube jacket temperature (°C),LED temperature (°C),Box temperature (°C),Sample RH (%),Span deviation,Mass concentration (μg/m³),Mass concentration (μg/m³),Mass concentration (μg/m³)
DateTimeUTC,F1_M11,P_M11,Q1_M11,Q2_M11,T1_M11,T2_M11,T3_M11,T4_M11,T5_M11,U1_M11,ZSPAN_M11,X2_M11,X0_M11,X1_M11
2023-03-11 19:00:00,,0815.9,5.01,0.00,23.4,21.8,00.0,32.2,25.2,08.2,0000.0,0000.55,0000.97,0000.38
2023-03-11 19:01:00,,0815.9,5.00,0.00,23.4,21.8,00.0,32.2,25.1,08.2,0000.0,0000.56,0001.03,0000.37
2023-03-11 19:02:00,,0815.8,5.00,0.00,23.4,21.8,00.0,32.2,25.1,08.2,0000.0,0000.57,0001.08,0000.38
2023-03-11 19:03:00,,0815.8,4.99,0.00,23.4,21.8,00.0,32.2,25.1,08.2,0000.0,0000.58,0001.10,0000.38
2023-03-11 19:04:00,,0815.7,5.00,0.00,23.4,21.8,00.0,32.2,25.1,07.8,0000.0,0000.61,0001.16,0000.39
2023-03-11 19:05:00,,0815.8,4.98,0.00,23.4,21.8,00.0,32.2,25.1,07.7,0000.0,0000.63,0001.20,0000.39
2023-03-11 19:06:00,,0816.1,5.00,0.00,23.4,21.8,00.0,32.1,25.1,07.5,0000.0,0000.60,0001.12,0000.39
2023-03-11 19:07:00,,0816.0,5.01,0.00,23.4,21.8,00.0,32.1,25.1,07.4,0000.0,0000.59,0001.11,0000.40
2023-03-11 19:08:00,,0815.9,5.01,0.00,23.3,21.8,00.0,32.1,25.0,07.2,0000.0,0000.61,0001.18,0000.40
2023-03-11 19:09:00,,0815.9,5.01,0.00,23.3,21.8,00.0,32.1,25.0,07.4,0000.0,0000.64,0001.28,0000.41
2023-03-11 19:10:00,,0816.0,5.00,0.00,23.3,21.7,00.0,32.1,25.0,07.6,0000.0,0000.67,0001.36,0000.41
2023-03-11 19:11:00,,0816.0,4.99,0.00,23.3,21.7,00.0,32.1,25.0,07.6,0000.0,0000.72,0001.45,0000.41
2023-03-11 19:12:00,,0816.0,5.00,0.00,23.3,21.8,00.0,32.1,25.0,07.2,0000.0,0000.74,0001.47,0000.41
2023-03-11 19:13:00,,0815.7,5.00,0.00,23.3,21.8,00.0,32.1,25.1,07.0,0000.0,0000.75,0001.47,0000.41
2023-03-11 19:14:00,,0815.4,5.00,0.00,23.3,21.7,00.0,32.1,25.0,06.9,0000.0,0000.78,0001.56,0000.41
2023-03-11 19:15:00,,0815.8,5.01,0.00,23.3,21.7,00.0,32.1,24.9,07.0,0000.0,0000.80,0001.61,0000.42
2023-03-11 19:16:00,,0815.6,5.00,0.00,23.3,21.7,00.0,32.1,25.0,07.1,0000.0,0000.80,0001.65,0000.42
2023-03-11 19:17:00,,0815.5,5.00,0.00,23.3,21.7,00.0,32.1,25.0,07.1,0000.0,0000.83,0001.71,0000.43
2023-03-11 19:18:00,,0815.6,4.99,0.00,23.3,21.7,00.0,32.1,25.0,06.7,0000.0,0000.87,0001.81,0000.44
2023-03-11 19:19:00,,0815.7,4.99,0.00,23.3,21.7,00.0,32.1,25.0,06.4,0000.0,0000.90,0001.86,0000.46
2023-03-11 19:20:00,,0815.8,5.00,0.00,23.2,21.7,00.0,32.1,25.0,06.3,0000.0,0000.90,0001.81,0000.46
2023-03-11 19:21:00,,0815.7,5.00,0.00,23.2,21.7,00.0,32.1,24.9,06.3,0000.0,0000.88,0002.25,0000.47
2023-03-11 19:22:00,,0815.8,5.02,0.00,23.2,21.7,00.0,32.1,24.9,06.5,0000.0,0000.85,0002.20,0000.49
2023-03-11 19:23:00,,0815.9,5.00,0.00,23.2,21.7,00.0,32.1,24.9,06.7,0000.0,0000.85,0002.18,0000.50
2023-03-11 19:24:00,,0815.8,5.00,0.00,23.2,21.6,00.0,32.0,25.0,06.8,0000.0,0000.86,0002.20,0000.51
2023-03-11 19:25:00,,0815.4,5.00,0.00,23.2,21.6,00.0,32.0,24.9,06.9,0000.0,0000.87,0002.19,0000.51
2023-03-11 19:26:00,,0815.4,5.01,0.00,23.2,21.6,00.0,32.0,24.8,06.9,0000.0,0000.89,0002.25,0000.52
2023-03-11 19:27:00,,0815.4,4.99,0.00,23.2,21.6,00.0,32.0,24.8,07.0,0000.0,0000.90,0002.27,0000.52
2023-03-11 19:28:00,,0815.5,5.00,0.00,23.2,21.6,00.0,32.0,24.9,07.3,0000.0,0000.91,0002.98,0000.52
2023-03-11 19:29:00,,0815.4,5.00,0.00,23.2,21.6,00.0,32.0,24.9,07.4,0000.0,0000.91,0003.26,0000.52
2023-03-11 19:30:00,,0815.7,4.99,0.00,23.2,21.6,00.0,32.0,24.8,06.6,0000.0,0000.94,0003.38,0000.51
2023-03-11 19:31:00,,0815.4,5.00,0.00,23.2,21.6,00.0,32.0,24.9,06.7,0000.0,0000.99,0003.50,0000.52
2023-03-11 19:32:00,,0815.3,5.00,0.00,23.2,21.6,00.0,32.0,25.0,06.4,0000.0,0001.01,0003.14,0000.53
2023-03-11 19:33:00,,0815.2,5.00,0.00,23.2,21.6,00.0,32.0,24.9,06.7,0000.0,0001.07,0003.11,0000.53
2023-03-11 19:34:00,,0815.3,5.00,0.00,23.2,21.6,00.0,32.0,25.0,06.9,0000.0,0001.09,0003.13,0000.54
2023-03-11 19:35:00,,0815.2,4.99,0.00,23.2,21.6,00.0,32.0,24.9,06.8,0000.0,0001.14,0003.21,0000.56
2023-03-11 19:36:00,,0815.2,5.00,0.00,23.1,21.6,00.0,31.9,24.9,06.8,0000.0,0001.14,0003.23,0000.56
2023-03-11 19:37:00,,0815.2,5.01,0.00,23.1,21.6,00.0,31.9,24.9,06.3,0000.0,0001.15,0003.26,0000.58
2023-03-11 19:38:00,,0815.2,5.01,0.00,23.1,21.6,00.0,31.9,24.9,06.4,0000.0,0001.17,0003.30,0000.58
2023-03-11 19:39:00,,0815.1,5.01,0.00,23.1,21.5,00.0,31.9,24.9,06.4,0000.0,0001.17,0002.63,0000.59
2023-03-11 19:40:00,,0815.0,5.00,0.00,23.1,21.5,00.0,31.9,24.9,06.5,0000.0,0001.23,0002.43,0000.60
2023-03-11 19:41:00,,0815.0,4.99,0.00,23.1,21.5,00.0,31.9,24.9,06.3,0000.0,0001.28,0002.57,0000.63
2023-03-11 19:42:00,,0815.1,4.99,0.00,23.1,21.5,00.0,31.9,24.9,06.4,0000.0,0001.31,0002.61,0000.64
2023-03-11 19:43:00,,0815.0,5.00,0.00,23.1,21.5,00.0,31.9,24.8,06.5,0000.0,0001.29,0003.05,0000.63
2023-03-11 19:44:00,,0815.2,5.00,0.00,23.1,21.5,00.0,31.9,24.8,06.4,0000.0,0001.27,0003.11,0000.64
2023-03-11 19:45:00,,0815.2,5.00,0.00,23.1,21.5,00.0,31.9,24.9,06.6,0000.0,0001.28,0003.17,0000.64
2023-03-11 19:46:00,,0815.1,5.01,0.00,23.1,21.5,00.0,31.9,24.9,06.6,0000.0,0001.31,0003.26,0000.64
2023-03-11 19:47:00,,0815.1,5.00,0.00,23.1,21.5,00.0,31.9,24.8,06.4,0000.0,0001.35,0003.30,0000.65
2023-03-11 19:48:00,,0815.2,5.00,0.00,23.1,21.5,00.0,31.9,24.8,06.4,0000.0,0001.37,0003.36,0000.66
2023-03-11 19:49:00,,0815.1,5.00,0.00,23.1,21.5,00.0,31.9,24.8,06.5,0000.0,0001.37,0003.36,0000.66
2023-03-11 19:50:00,,0815.2,5.00,0.00,23.1,21.5,00.0,31.9,24.9,06.5,0000.0,0001.41,0003.51,0000.67
2023-03-11 19:51:00,,0815.2,5.00,0.00,23.1,21.5,00.0,31.8,24.9,06.5,0000.0,0001.39,0003.41,0000.67
2023-03-11 19:52:00,,0815.2,5.00,0.00,23.1,21.5,00.0,31.8,24.8,06.3,0000.0,0001.32,0003.34,0000.65
2023-03-11 19:53:00,,0815.3,5.00,0.00,23.1,21.5,00.0,31.8,24.8,06.3,0000.0,0001.27,0003.25,0000.63
2023-03-11 19:54:00,,0815.3,5.00,0.00,23.1,21.5,00.0,31.8,24.8,06.3,0000.0,0001.31,0002.85,0000.64
2023-03-11 19:55:00,,0815.3,4.99,0.00,23.0,21.5,00.0,31.8,24.8,06.3,0000.0,0001.33,0002.78,0000.66
2023-03-11 19:56:00,,0815.4,5.00,0.00,23.0,21.5,00.0,31.8,24.8,06.5,0000.0,0001.30,0003.03,0000.64
2023-03-11 19:57:00,,0815.4,5.00,0.00,23.0,21.5,00.0,31.8,24.8,06.6,0000.0,0001.27,0003.65,0000.64
2023-03-11 19:58:00,,0815.3,5.00,0.00,23.0,21.5,00.0,31.8,24.6,06.8,0000.0,0001.26,0003.64,0000.63
2023-03-11 19:59:00,,0815.3,4.99,0.00,23.0,21.5,00.0,31.8,24.7,06.8,0000.0,0001.23,0003.58,0000.63
